Date,TemperatureHighF,TemperatureAvgF,TemperatureLowF,DewpointHighF,DewpointAvgF,DewpointLowF,HumidityHigh,HumidityAvg,HumidityLow,PressureMaxIn,PressureMinIn,WindSpeedMaxMPH,WindSpeedAvgMPH,GustSpeedMaxMPH,PrecipitationSumIn
2013-1-1,16.5,13.3,10.5,7.3,4.7,0.2,78,68,60,30.22,30.08,8,5,12,0.00
2013-1-2,23.6,18.1,12.3,16.3,12.3,5.6,86,78,66,30.15,30.03,7,3,10,0.00
2013-1-3,25.7,21.8,17.5,19.4,15.3,11.5,82,76,69,30.12,30.01,11,6,14,0.00
2013-1-4,28.7,21.9,15.2,18.8,14.4,9.1,80,73,64,30.14,29.94,13,8,20,0.00
2013-1-5,33.4,23.5,10.0,26.6,18.7,7.2,92,82,61,30.19,29.84,14,3,16,0.00
2013-1-6,31.0,25.6,11.7,26.6,19.2,9.1,94,77,60,30.25,29.83,14,5,19,0.00
2013-1-7,37.3,28.3,18.6,25.1,18.4,8.0,88,67,50,30.24,29.92,18,9,29,0.00
2013-1-8,38.5,33.8,25.8,36.0,29.0,22.9,93,82,69,30.11,29.84,21,8,28,0.00
2013-1-9,40.1,36.0,29.5,31.3,26.7,21.5,81,69,57,30.42,29.81,15,9,25,0.00
2013-1-10,39.6,32.5,22.2,36.9,27.6,18.9,100,82,65,30.50,29.96,12,3,12,0.20
2013-1-11,43.8,40.4,36.8,43.8,40.4,36.8,100,100,100,29.95,29.57,17,7,21,0.29
2013-1-12,46.7,37.0,24.8,43.8,30.9,16.5,100,79,66,29.98,29.53,19,11,21,0.00
2013-1-13,24.8,21.9,15.7,17.1,13.7,6.0,77,70,65,30.12,29.89,13,6,20,0.00
2013-1-14,23.5,15.6,9.3,8.5,6.0,3.5,77,66,46,30.41,30.12,12,7,18,0.00
2013-1-15,30.1,20.1,6.9,15.2,10.2,3.3,86,66,46,30.42,30.01,12,6,17,0.00
2013-1-16,30.9,26.2,21.1,25.0,16.7,7.3,80,68,49,30.03,29.66,14,8,19,0.00
2013-1-17,22.9,15.8,10.2,13.0,2.7,-3.1,71,56,39,30.40,30.05,11,7,14,0.00
2013-1-18,36.8,23.0,7.0,30.3,15.9,-2.5,92,74,57,30.42,29.74,24,5,30,0.00
2013-1-19,43.1,29.8,16.1,35.4,24.7,1.5,97,82,52,29.81,29.49,18,7,26,0.01
2013-1-20,15.6,9.6,4.5,4.0,-2.8,-8.2,68,57,48,30.24,29.77,18,9,28,0.00
2013-1-21,4.3,-1.4,-6.8,-7.6,-15.3,-25.0,64,51,38,30.26,30.10,14,10,19,0.00
2013-1-22,3.7,-2.1,-7.7,-10.4,-15.5,-20.0,61,52,40,30.34,30.25,9,6,17,0.00
2013-1-23,11.2,4.9,-2.0,6.2,-4.1,-12.2,81,66,57,30.40,30.10,14,8,19,0.00
2013-1-24,12.8,8.1,1.8,8.2,-1.6,-5.7,84,64,56,30.69,30.39,13,4,13,0.00
2013-1-25,19.4,15.4,9.7,16.2,12.2,5.6,90,87,82,30.39,29.94,8,3,11,0.10
2013-1-26,25.0,15.2,7.0,15.5,9.1,2.4,84,77,64,30.40,30.14,6,3,10,0.01
2013-1-27,34.1,29.5,21.4,32.1,26.0,14.7,100,87,64,30.37,29.92,17,9,22,0.29
2013-1-28,35.3,33.6,30.4,35.3,32.8,29.1,100,97,88,29.97,29.78,11,4,13,0.05
2013-1-29,42.9,37.9,33.7,42.9,37.6,32.5,100,99,90,29.86,29.48,14,5,18,0.44
2013-1-30,33.5,24.6,14.3,33.5,23.3,8.7,100,95,78,29.52,29.27,16,10,19,0.07
2013-1-31,15.9,12.8,6.7,10.6,6.4,-0.7,88,75,66,30.03,29.47,12,8,17,0.00
2013-2-1,6.3,2.8,0.5,-1.1,-6.4,-10.3,74,65,57,30.24,30.04,9,7,16,0.00
2013-2-2,13.8,5.4,1.3,-0.9,-4.8,-7.4,75,63,43,30.16,30.02,9,4,11,0.00
2013-2-3,17.7,8.3,-1.8,3.4,-0.1,-6.7,82,69,49,30.05,29.92,11,4,14,0.00
2013-2-4,17.0,8.2,0.7,0.7,-1.2,-5.2,83,66,47,30.05,29.94,8,2,10,0.00
2013-2-5,22.4,15.8,4.5,15.6,8.5,-3.6,91,73,59,30.09,29.75,10,4,12,0.00
2013-2-6,26.4,15.1,-1.6,25.9,9.0,-6.0,98,78,51,30.27,30.10,6,1,7,0.07
2013-2-7,33.2,28.3,18.9,33.2,27.9,17.2,100,98,93,30.14,30.02,15,6,18,0.08
2013-2-8,25.3,18.0,1.5,19.3,13.1,-2.7,93,81,64,30.43,30.12,14,6,18,0.00
2013-2-9,29.3,17.5,-0.4,25.1,13.5,-4.8,89,84,80,30.42,30.13,14,4,17,0.00
2013-2-10,39.9,31.6,17.7,39.9,30.1,16.0,100,94,84,30.13,29.35,18,8,22,0.73
2013-2-11,39.6,33.9,26.9,39.6,29.5,17.4,100,84,64,29.87,29.31,18,10,24,0.04
2013-2-12,26.7,24.2,19.7,19.2,17.0,14.8,87,74,65,30.00,29.81,11,6,18,0.00
2013-2-13,33.8,28.7,19.5,28.5,23.8,16.3,92,82,72,29.81,29.66,7,3,8,0.00
2013-2-14,32.9,28.7,19.5,32.2,26.2,9.1,100,91,63,30.00,29.59,12,6,17,0.15
2013-2-15,22.2,17.2,10.0,13.2,8.4,3.4,76,68,57,30.18,30.00,10,5,12,0.00
2013-2-16,18.8,10.0,2.6,4.7,0.4,-3.5,80,65,46,30.21,30.13,8,3,10,0.00
2013-2-17,25.6,10.5,-2.4,18.5,0.5,-7.3,80,65,42,30.24,30.01,9,2,11,0.00
2013-2-18,38.2,34.5,27.5,36.3,29.9,18.9,100,84,65,30.00,29.35,24,12,28,0.16
2013-2-19,32.2,19.4,7.2,32.2,16.7,0.9,100,89,75,30.07,29.34,8,5,15,0.15
2013-2-20,22.1,14.1,7.7,10.8,6.2,2.0,79,71,59,30.41,30.08,13,7,17,0.00
2013-2-21,26.0,19.2,9.0,20.9,14.6,3.8,87,82,73,30.48,30.21,11,7,16,0.00
2013-2-22,28.2,26.6,24.1,28.0,24.8,18.5,99,93,75,30.21,29.79,16,6,24,0.15
2013-2-23,30.1,25.8,21.4,25.4,22.5,20.2,97,88,73,29.86,29.78,8,3,12,0.03
2013-2-24,35.0,26.3,16.7,24.4,20.7,14.3,93,80,59,30.15,29.86,7,3,11,0.00
2013-2-25,37.8,27.8,12.6,29.1,23.2,10.2,96,83,58,30.18,30.09,9,2,11,0.00
2013-2-26,33.8,31.4,25.1,29.8,26.3,23.4,96,82,69,30.13,29.88,19,7,29,0.00
2013-2-28,27.9,25.9,24.2,21.9,19.8,16.5,84,78,72,30.15,30.00,15,11,24,0.00
2013-3-1,26.7,21.6,11.2,17.5,14.4,6.7,84,74,56,30.28,30.15,14,9,22,0.00
2013-3-2,28.2,18.0,8.6,15.7,9.8,4.5,84,71,52,30.27,30.18,10,5,12,0.00
2013-3-3,28.7,15.1,5.2,12.7,6.4,0.6,87,69,50,30.18,30.10,8,2,11,0.00
2013-3-4,27.6,16.7,3.2,20.4,11.6,-0.5,92,81,65,30.21,30.14,10,3,11,0.00
2013-3-5,30.6,25.6,11.2,22.4,18.9,6.9,91,76,62,30.15,30.00,16,8,20,0.00
2013-3-6,33.5,29.9,26.7,30.3,25.7,21.7,93,84,78,30.31,30.10,10,5,12,0.00
2013-3-7,30.9,21.7,10.7,23.1,13.7,7.3,90,72,50,30.48,30.30,6,2,8,0.00
2013-3-8,34.1,27.1,11.6,28.8,22.0,8.2,94,81,67,30.51,30.32,12,5,15,0.00
2013-3-9,37.6,35.1,30.1,35.2,31.6,28.6,97,87,76,30.31,29.84,16,11,21,0.39
2013-3-10,37.2,35.6,32.9,36.9,34.9,31.9,100,97,91,29.87,29.68,19,9,29,0.33
2013-3-11,34.3,32.7,27.9,34.3,31.5,20.7,100,95,74,29.67,29.48,19,6,21,0.09
2013-3-12,29.8,26.0,20.2,24.6,19.2,11.3,92,75,65,29.95,29.65,13,8,17,0.01
2013-3-13,33.5,25.1,19.2,17.2,11.0,3.4,86,57,30,30.26,29.95,14,8,19,0.00
2013-3-14,36.0,26.1,12.4,24.9,14.4,9.4,92,64,35,30.27,29.99,10,4,13,0.00
2013-3-15,33.8,29.5,19.2,28.6,22.2,15.6,92,74,57,29.99,29.90,13,8,18,0.00
2013-3-16,28.7,22.0,17.5,16.9,14.0,9.3,91,73,48,30.11,29.91,11,6,13,0.00
2013-3-17,27.8,19.3,9.7,17.7,8.8,-2.0,78,63,54,30.34,30.11,9,5,13,0.00
2013-3-18,30.6,27.7,22.5,29.9,23.2,15.5,99,84,61,30.11,29.51,14,5,19,0.22
2013-3-19,30.9,21.4,15.6,19.9,12.4,6.5,90,69,49,29.92,29.52,16,9,21,0.00
2013-3-20,24.4,18.1,11.1,16.5,6.6,0.6,88,61,47,30.00,29.92,12,7,18,0.00
2013-3-21,30.1,21.8,14.4,15.5,12.3,8.6,81,67,51,30.02,29.96,13,5,16,0.00
2013-3-22,34.0,24.4,12.8,23.0,16.6,9.1,86,72,59,30.07,30.02,7,2,10,0.00
2013-3-23,33.8,30.1,26.1,23.9,21.8,20.1,81,71,60,30.17,30.08,8,4,9,0.00
2013-3-24,33.8,29.7,25.6,27.5,22.2,18.4,89,74,53,30.12,29.87,17,8,21,0.00
2013-3-25,36.8,30.2,24.5,25.1,22.9,20.9,88,75,56,30.09,29.85,13,8,18,0.00
2013-3-26,40.2,32.8,29.0,31.4,26.7,22.8,89,78,61,30.22,30.08,10,5,17,0.00
2013-3-27,44.9,34.4,26.0,24.3,21.7,19.5,82,62,37,30.26,30.21,8,4,12,0.00
2013-3-28,46.7,34.3,23.0,24.3,20.2,17.6,86,59,34,30.32,30.25,6,2,7,0.00
2013-3-29,45.4,35.0,22.2,23.7,20.8,17.0,90,59,33,30.31,30.20,6,2,7,0.00
2013-3-30,39.9,36.7,32.1,38.9,28.2,18.6,100,73,51,30.20,29.75,17,7,24,0.15
2013-3-31,44.3,36.3,27.6,39.5,31.2,15.6,100,83,48,29.86,29.60,17,8,19,0.00
2013-4-1,33.5,26.8,20.8,19.8,12.1,7.7,72,55,34,30.14,29.86,12,7,17,0.00
2013-4-2,37.3,28.9,20.6,14.4,11.6,9.1,70,49,32,30.30,30.12,10,4,13,0.00
2013-4-3,37.3,28.1,19.2,22.0,14.0,5.9,79,57,28,30.49,30.24,13,5,17,0.00
2013-4-4,50.1,39.3,29.8,32.5,25.4,19.1,78,58,43,30.23,29.91,12,7,19,0.00
2013-4-5,36.9,31.7,27.2,27.0,21.4,15.2,87,66,43,30.28,30.06,10,4,11,0.00
2013-4-6,42.9,37.3,29.4,42.4,31.6,20.9,98,80,59,30.19,29.45,19,9,27,0.07
2013-4-7,48.0,39.0,34.0,47.6,34.2,29.8,100,84,55,30.01,29.45,11,6,16,0.08
2013-4-8,38.3,36.1,34.4,37.3,34.4,32.3,100,94,85,30.03,29.78,11,6,14,0.03
2013-4-9,38.3,35.6,31.2,37.4,34.2,25.8,100,95,80,30.14,30.02,14,7,18,0.19
2013-4-10,37.2,33.5,29.8,32.0,29.3,23.4,99,85,60,30.18,30.04,14,9,19,0.48
2013-4-11,35.9,33.0,30.3,31.5,28.6,23.8,100,84,66,30.06,29.71,19,9,26,0.18
2013-4-12,33.2,31.5,29.1,33.2,31.3,28.6,100,100,97,29.75,29.60,8,2,10,0.07
2013-4-13,39.2,33.6,29.0,31.9,27.7,22.3,100,81,53,29.96,29.70,11,5,14,0.03
2013-4-14,38.3,32.8,23.0,33.5,27.7,21.5,96,82,65,30.06,29.75,12,5,16,0.01
2013-4-15,56.5,46.3,37.5,46.6,38.1,28.2,100,75,42,29.91,29.64,15,7,20,0.14
2013-4-16,49.9,40.9,33.4,32.3,29.0,26.1,80,64,40,30.34,29.90,14,6,18,0.00
2013-4-17,40.1,36.1,28.7,37.0,32.6,27.7,98,87,74,30.40,29.99,13,7,19,0.00
2013-4-18,46.5,39.0,35.5,46.5,38.9,35.5,100,100,97,29.98,29.25,16,8,17,0.11
2013-4-19,45.7,35.4,25.8,44.4,26.2,12.6,95,70,47,29.83,29.17,18,13,30,0.00
2013-4-20,40.5,30.2,23.8,25.2,16.9,9.6,78,59,28,30.44,29.83,12,7,18,0.00
2013-4-21,40.9,35.6,31.2,32.8,27.7,21.2,93,74,50,30.54,30.26,19,10,26,0.00
2013-4-22,50.7,41.8,38.6,39.2,35.4,32.2,95,79,55,30.26,30.07,20,10,24,0.05
2013-4-23,46.1,40.4,35.6,45.0,35.1,27.5,99,82,68,30.06,29.85,12,5,13,0.04
2013-4-24,50.8,39.6,30.1,32.7,25.5,16.3,87,60,27,30.00,29.91,13,4,16,0.00
2013-4-25,50.4,42.9,35.3,34.5,28.9,23.2,89,60,35,30.26,29.85,13,7,19,0.00
2013-4-26,50.4,43.6,34.4,49.9,35.2,27.0,98,73,59,30.27,30.10,26,10,34,0.05
2013-4-27,62.3,54.2,41.9,51.3,44.3,35.6,100,70,52,30.17,30.01,23,8,23,0.00
2013-4-28,65.6,45.2,39.6,44.2,23.0,-99.9,92,59,37,30.01,29.80,8,-116,9,0.00
2013-4-29,54.2,45.7,41.8,53.1,44.8,41.0,100,97,88,29.84,29.78,11,4,11,0.08
2013-4-30,60.7,52.7,45.5,52.9,48.4,43.6,100,86,73,29.82,29.69,27,16,34,0.59
2013-5-1,65.5,57.3,42.1,53.4,46.9,32.7,92,69,50,30.30,29.82,15,7,20,0.00
2013-5-2,50.5,41.1,35.6,38.9,34.8,32.1,93,79,64,30.32,30.24,17,11,20,0.20
2013-5-3,51.3,42.4,34.9,42.6,37.8,32.4,96,84,71,30.27,30.08,12,8,15,0.02
2013-5-4,69.9,54.8,40.6,48.2,43.1,38.5,93,67,38,30.09,30.02,10,5,12,0.01
2013-5-5,68.8,53.4,40.1,47.4,40.4,36.7,90,64,33,30.11,30.03,7,3,8,0.00
2013-5-6,72.7,55.2,39.6,48.9,41.3,33.6,92,62,25,30.10,29.99,7,2,8,0.00
2013-5-7,73.3,56.0,40.9,48.0,39.9,31.2,92,59,24,30.07,29.99,6,2,7,0.00
2013-5-8,72.1,57.6,41.8,45.8,38.1,33.1,88,53,26,30.02,29.94,7,2,8,0.00
2013-5-9,66.0,51.6,39.3,48.4,42.0,38.0,97,72,44,30.05,29.92,15,6,21,0.08
2013-5-10,47.0,39.5,32.9,40.7,37.1,32.4,98,91,76,30.02,29.95,13,7,16,0.16
2013-5-11,47.3,40.2,31.5,44.1,34.1,25.4,100,82,43,29.95,29.74,15,7,24,0.20
2013-5-12,45.2,38.6,30.7,29.7,25.3,21.6,76,60,40,30.12,29.92,16,9,22,0.04
2013-5-13,48.6,40.1,28.2,33.8,26.0,16.6,91,60,29,30.17,29.95,15,6,19,0.01
2013-5-14,63.2,49.9,40.8,48.1,40.5,33.1,82,70,48,29.95,29.45,16,8,20,0.00
2013-5-15,76.5,63.3,49.4,49.4,43.3,35.3,88,53,23,29.75,29.43,15,6,20,0.00
2013-5-16,61.2,55.5,49.1,45.6,40.9,37.6,74,58,44,30.07,29.75,10,5,12,0.00
2013-5-17,52.3,48.6,44.2,46.5,42.3,38.5,87,79,70,30.18,30.05,9,4,12,0.01
2013-5-18,63.2,54.5,48.3,49.1,45.6,43.0,90,73,54,30.13,29.96,9,4,12,0.01
2013-5-19,74.4,60.1,48.3,63.2,53.5,43.7,97,80,63,29.96,29.77,14,5,16,0.00
2013-5-20,73.2,59.1,49.9,63.1,54.6,47.0,100,86,58,29.79,29.65,15,6,16,0.13
2013-5-21,65.0,55.5,49.5,60.4,53.6,46.1,100,94,79,29.68,29.59,14,5,18,0.09
2013-5-22,56.5,52.5,49.2,56.3,52.3,48.9,100,99,96,29.79,29.65,10,5,14,0.04
2013-5-23,50.4,44.9,40.3,50.4,36.9,30.3,100,75,52,30.32,29.79,16,11,27,0.03
2013-5-24,51.1,43.4,32.5,38.5,34.8,30.4,96,73,57,30.44,30.32,9,3,12,0.05
2013-5-25,58.3,47.6,33.7,43.0,34.9,29.3,100,66,35,30.44,30.31,8,3,10,0.00
2013-5-26,59.8,49.7,35.2,41.1,35.7,31.6,92,61,41,30.35,30.20,7,3,11,0.00
2013-5-27,62.6,53.2,38.3,46.9,40.5,33.9,88,63,45,30.22,29.92,9,3,12,0.00
2013-5-28,55.6,51.8,48.0,55.6,51.2,41.7,100,98,72,29.92,29.72,8,2,10,0.01
2013-5-29,65.3,56.8,50.5,62.3,55.5,50.5,100,96,80,29.90,29.76,15,5,18,0.00
2013-5-30,69.9,60.9,52.5,63.8,57.5,52.2,100,89,73,29.86,29.75,19,8,30,0.00
2013-5-31,67.6,57.9,51.6,61.9,56.1,51.1,100,94,78,29.77,29.68,16,9,19,0.00
2013-6-1,73.0,58.2,51.1,65.4,56.4,50.8,100,94,75,29.69,29.58,11,3,12,0.00
2013-6-2,56.6,47.6,40.1,51.4,42.1,39.2,100,82,56,30.04,29.63,14,7,19,0.00
2013-6-3,62.7,48.9,36.8,49.1,43.2,36.7,100,83,46,30.12,30.00,9,3,11,0.00
2013-6-4,55.4,48.9,43.5,46.5,40.6,33.3,100,76,45,30.23,30.12,8,2,8,0.01
2013-6-5,55.7,50.3,45.1,49.6,46.5,39.0,100,87,78,30.19,30.02,9,4,11,0.00
2013-6-6,59.3,52.9,49.1,48.2,44.7,41.3,89,74,60,30.02,29.95,8,5,12,0.01
2013-6-7,70.9,59.1,47.4,47.6,43.5,37.9,93,59,33,29.99,29.90,9,4,13,0.00
2013-6-8,69.9,57.2,44.9,55.8,47.0,42.2,99,73,37,30.03,29.90,6,1,9,0.01
2013-6-9,69.1,58.1,43.6,58.4,52.1,43.6,100,82,66,30.04,29.87,8,4,13,0.00
2013-6-10,72.0,63.1,55.9,61.2,56.7,52.7,99,80,66,29.87,29.77,7,2,11,0.00
2013-6-11,80.1,64.5,51.3,64.7,57.9,51.3,100,81,54,29.87,29.75,7,2,12,0.00
2013-6-12,73.0,63.8,54.5,61.5,54.7,46.8,100,75,41,29.88,29.69,7,3,9,0.01
2013-6-13,70.6,63.5,58.1,55.3,52.2,48.4,81,67,53,30.06,29.73,13,8,22,0.00
2013-6-14,65.6,58.2,47.4,53.1,44.6,34.7,92,62,35,30.14,29.99,7,2,8,0.00
2013-6-15,64.7,58.0,52.9,60.2,50.6,38.0,100,78,48,30.00,29.74,7,2,11,0.63
2013-6-16,81.6,69.5,59.8,64.0,58.5,50.9,100,73,35,29.88,29.74,10,6,22,0.05
2013-6-17,63.9,59.5,52.0,59.5,54.9,47.8,100,85,71,30.02,29.81,12,5,14,0.04
2013-6-18,66.6,57.1,46.4,50.3,44.0,32.0,90,65,28,30.11,30.02,10,4,12,0.00
2013-6-19,67.4,57.5,42.8,49.0,44.3,39.6,99,64,43,30.15,30.06,13,6,16,0.00
2013-6-20,74.4,66.4,52.6,58.7,50.8,40.6,68,57,49,30.11,30.05,13,6,20,0.00
2013-6-21,78.3,67.5,57.5,69.1,60.2,52.3,100,78,57,30.07,29.85,19,6,25,0.45
2013-6-22,71.3,62.9,56.5,65.8,61.1,56.5,100,94,79,30.05,29.90,11,2,16,0.00
2013-6-23,75.6,64.7,56.5,68.3,62.2,56.5,100,92,75,30.00,29.81,13,4,21,0.10
2013-6-24,82.4,72.1,62.0,72.5,67.2,60.8,100,85,67,29.92,29.79,10,2,12,0.00
2013-6-25,78.1,70.6,59.3,70.3,67.2,59.3,100,90,71,29.83,29.76,9,4,14,1.07
2013-6-26,74.6,66.0,58.9,68.7,62.9,58.9,100,90,73,29.78,29.68,12,3,17,0.00
2013-6-27,74.9,66.2,60.4,69.0,64.0,60.4,100,93,79,29.75,29.63,6,2,7,0.14
2013-6-28,72.3,65.8,59.3,66.2,63.0,59.3,100,91,77,29.63,29.57,7,3,10,0.02
2013-6-29,72.0,65.4,60.1,61.5,57.8,49.5,97,77,60,29.83,29.61,13,7,17,0.00
2013-6-30,76.0,65.9,55.9,54.8,49.9,40.2,88,59,29,30.03,29.83,11,4,14,0.00
2013-7-1,76.3,65.4,55.3,60.5,51.6,43.8,87,61,47,30.12,30.03,10,4,12,0.00
2013-7-2,70.9,62.7,48.2,54.7,47.6,39.6,100,62,33,30.14,30.06,10,4,11,0.00
2013-7-3,72.5,63.6,57.2,58.2,54.9,49.8,97,75,47,30.08,29.99,5,1,7,0.00
2013-7-4,73.0,67.1,61.8,66.7,61.4,56.8,100,83,61,30.04,29.96,14,5,20,0.00
2013-7-5,78.5,70.5,60.1,67.3,62.0,56.4,100,75,56,30.00,29.93,18,6,22,0.00
2013-7-6,82.0,72.0,60.9,67.7,62.1,57.1,90,72,57,29.98,29.90,15,5,18,0.00
2013-7-7,81.4,72.1,64.2,73.1,66.7,61.5,96,84,73,29.92,29.85,7,2,10,0.00
2013-7-8,77.2,67.9,62.6,70.0,66.2,62.1,100,95,72,29.96,29.82,11,4,14,1.03
2013-7-9,71.5,65.7,61.5,70.9,65.4,61.5,100,99,88,29.96,29.69,10,3,13,0.00
2013-7-10,75.1,70.2,58.6,71.3,60.7,54.4,100,73,52,29.96,29.70,12,6,18,0.00
2013-7-11,72.8,64.7,53.6,60.5,57.1,51.0,98,77,58,30.09,29.96,6,2,10,0.20
2013-7-12,76.1,64.4,49.8,63.5,56.2,48.3,100,77,43,30.13,30.05,7,3,9,0.00
2013-7-13,78.1,69.8,61.8,67.5,61.6,55.3,100,77,55,30.13,30.05,13,4,17,0.00
2013-7-14,81.1,71.4,57.8,69.9,65.5,57.8,100,83,63,30.21,30.13,9,3,12,0.00
2013-7-15,83.8,74.5,62.4,71.4,66.9,62.3,100,80,53,30.25,30.18,7,2,10,0.00
2013-7-16,87.0,77.3,66.1,77.3,72.1,65.7,100,85,66,30.22,30.14,11,3,12,0.00
2013-7-17,91.0,80.7,73.9,76.6,73.9,70.2,93,81,54,30.19,30.06,8,3,11,0.05
2013-7-18,91.4,83.6,75.3,76.2,73.0,71.0,89,72,54,30.07,29.74,16,5,16,0.00
2013-7-19,89.7,80.0,65.2,73.7,69.8,65.0,100,72,50,29.75,29.60,12,6,18,0.08
2013-7-20,70.1,65.4,57.6,65.0,56.6,50.1,100,75,56,29.99,29.74,10,4,12,0.00
2013-7-21,65.0,59.2,51.6,60.4,55.9,49.6,100,89,74,30.02,29.89,7,2,10,0.14
2013-7-22,76.5,67.3,53.5,70.6,64.4,53.5,100,91,79,29.90,29.52,14,6,22,0.00
2013-7-23,73.9,63.5,49.2,66.2,52.7,46.4,94,68,55,29.97,29.63,13,6,16,0.00
2013-7-24,70.1,59.3,45.4,57.3,50.9,45.4,100,76,44,30.06,29.97,9,3,12,0.00
2013-7-25,72.8,66.0,58.0,62.4,57.4,51.9,88,74,58,30.02,29.89,18,8,21,0.00
2013-7-26,70.6,64.2,56.9,65.8,62.3,55.2,100,94,80,29.91,29.77,16,4,19,0.50
2013-7-27,60.7,55.2,51.6,55.1,49.1,46.3,98,81,62,29.88,29.78,9,4,13,0.09
2013-7-28,56.9,55.0,52.0,56.9,52.8,48.9,100,92,78,29.92,29.76,9,5,12,0.04
2013-7-29,68.9,59.2,53.3,59.7,54.0,50.4,93,84,64,30.14,29.92,8,5,11,0.08
2013-7-30,67.9,61.0,51.4,62.4,56.0,51.4,100,84,66,30.18,30.06,9,2,10,0.05
2013-7-31,72.8,66.4,59.0,67.2,62.6,56.2,99,88,75,30.06,29.85,13,3,13,0.01
2013-8-1,75.4,66.4,58.4,60.4,57.1,53.2,100,74,47,29.89,29.83,9,3,15,0.00
2013-8-2,76.7,67.3,58.1,60.7,57.2,51.8,97,72,48,29.92,29.77,7,3,12,0.00
2013-8-3,74.6,64.5,53.6,58.1,55.0,52.7,100,74,48,30.12,29.92,8,3,13,0.00
2013-8-4,66.6,59.4,51.6,57.0,53.5,50.6,100,82,61,30.20,30.09,6,2,11,0.00
2013-8-5,66.4,60.7,49.8,64.0,57.2,48.7,99,89,66,30.09,29.83,14,4,16,0.00
2013-8-6,73.7,67.6,60.7,67.7,64.5,60.6,100,90,75,29.83,29.69,11,4,13,0.00
2013-8-7,74.2,65.5,58.0,67.6,62.1,58.0,100,90,63,29.98,29.64,13,4,19,0.53
2013-8-8,72.3,61.8,48.0,62.3,54.1,48.0,100,78,54,30.02,29.94,7,2,8,0.00
2013-8-9,76.0,66.5,54.7,61.6,54.0,48.3,85,65,43,30.02,29.89,9,3,13,0.00
2013-8-10,70.3,63.9,57.5,62.2,59.0,55.4,100,85,68,30.11,30.02,10,2,12,0.00
2013-8-11,73.2,64.2,56.2,61.2,58.4,55.7,100,83,57,30.08,29.99,11,2,11,0.00
2013-8-12,77.0,63.9,52.9,67.4,58.7,46.5,100,85,52,30.00,29.84,11,4,14,0.00
2013-8-13,64.3,56.4,45.4,53.6,48.5,43.2,94,76,56,30.15,29.99,12,4,16,0.01
2013-8-14,67.3,55.6,41.5,54.1,48.4,41.5,100,79,50,30.20,30.08,8,3,11,0.00
2013-8-15,76.3,63.5,50.5,61.3,54.8,49.8,100,76,40,30.09,30.02,6,2,10,0.00
2013-8-16,77.0,64.6,50.7,63.9,55.7,50.7,100,77,46,30.15,30.07,6,2,8,0.00
2013-8-17,78.1,66.4,50.5,63.2,54.4,48.7,97,68,37,30.21,30.13,13,3,16,0.00
2013-8-18,77.6,66.8,51.0,63.0,56.1,48.1,99,70,54,30.18,30.03,13,4,15,0.00
2013-8-19,81.8,71.3,61.5,65.1,60.4,56.4,92,70,47,30.03,29.93,11,4,13,0.00
2013-8-20,82.8,73.5,66.4,68.9,65.0,61.6,89,76,57,30.00,29.93,16,6,19,0.00
2013-8-21,83.4,74.0,62.9,71.3,67.4,62.9,100,81,64,29.97,29.80,15,5,15,0.56
2013-8-22,76.5,67.6,56.5,68.6,60.6,54.3,100,81,48,30.11,29.92,6,2,8,0.02
2013-8-23,72.3,62.8,50.2,62.4,56.9,50.2,100,83,56,30.19,30.11,6,2,8,0.00
2013-8-24,75.6,66.3,54.4,65.5,60.7,54.4,100,84,52,30.23,30.11,12,5,17,0.00
2013-8-25,88.8,78.6,68.3,73.4,68.3,61.9,87,71,57,30.11,29.93,13,8,18,0.00
2013-8-26,84.7,75.7,68.8,72.1,68.2,65.1,98,78,65,30.02,29.87,9,4,13,0.07
2013-8-27,78.8,71.1,67.4,75.1,70.3,67.4,100,98,86,29.93,29.76,14,4,16,1.55
2013-8-28,81.8,71.2,67.1,72.1,64.4,-99.9,100,87,65,30.01,29.83,6,-20,7,0.01
2013-8-29,80.7,72.5,62.1,73.3,67.6,62.1,100,86,66,30.04,29.92,7,2,9,0.00
2013-8-30,81.1,73.1,64.3,73.8,67.4,62.7,96,83,66,29.95,29.74,14,6,20,0.03
2013-8-31,74.6,66.7,59.5,66.9,63.9,59.5,100,91,73,29.87,29.76,5,1,7,0.00
2013-9-1,78.8,68.6,59.9,69.9,64.7,58.7,100,88,61,29.80,29.65,9,3,11,0.00
2013-9-2,63.4,59.7,56.3,59.0,52.6,49.5,94,78,67,29.97,29.78,12,6,16,0.00
2013-9-3,72.8,62.6,52.0,55.4,53.0,49.5,100,73,45,30.03,29.91,8,3,13,0.00
2013-9-4,69.3,62.1,52.9,60.6,56.0,46.6,98,81,64,30.16,29.91,8,4,10,0.00
2013-9-5,63.5,55.6,46.0,50.1,47.4,42.7,100,75,55,30.30,30.16,7,2,11,0.00
2013-9-6,72.5,63.0,47.1,65.9,57.3,47.1,100,83,62,30.21,29.89,16,6,18,0.00
2013-9-7,83.4,71.9,61.6,70.2,65.7,58.6,92,81,61,30.01,29.82,12,4,15,0.02
2013-9-8,68.4,61.9,52.5,60.8,55.3,49.7,100,81,54,30.12,29.96,11,4,13,0.00
2013-9-9,78.3,67.0,60.7,74.8,65.6,59.4,100,95,84,29.97,29.65,13,6,19,0.00
2013-9-10,88.2,80.3,66.0,72.2,68.6,65.8,100,69,53,29.92,29.65,11,5,14,0.21
2013-9-11,79.9,71.0,64.5,68.5,65.1,57.1,100,83,60,29.94,29.86,8,3,11,0.31
2013-9-12,67.3,60.6,51.3,59.7,53.4,43.6,90,77,62,30.12,29.90,14,6,14,0.00
2013-9-13,60.4,52.2,42.2,46.2,42.6,39.7,100,71,53,30.21,30.12,11,5,14,0.00
2013-9-14,67.4,55.3,39.8,54.5,47.7,39.8,100,78,48,30.14,29.95,13,4,19,0.00
2013-9-15,62.4,56.2,47.7,58.1,51.7,40.8,100,85,67,30.26,29.94,11,4,14,0.17
2013-9-16,56.3,48.6,37.5,44.6,41.6,37.5,100,78,59,30.42,30.26,11,4,14,0.00
2013-9-17,61.5,51.4,35.9,56.5,47.7,35.9,100,88,74,30.36,30.09,13,4,17,0.00
2013-9-18,67.9,63.1,56.3,65.0,61.4,53.8,100,95,86,30.09,29.85,16,7,22,0.47
2013-9-19,77.6,68.0,63.5,70.8,66.8,63.5,100,96,79,29.86,29.65,13,7,16,0.11
2013-9-20,72.0,67.2,58.6,67.7,62.6,49.2,100,86,68,29.73,29.61,11,5,15,0.00
2013-9-21,58.1,53.7,47.4,49.8,45.1,38.1,87,73,60,29.95,29.74,12,6,18,0.00
2013-9-22,53.6,47.5,41.5,43.9,41.4,38.1,98,80,63,30.09,29.95,6,1,6,0.00
2013-9-23,58.0,48.1,37.5,49.9,43.9,37.5,100,87,67,30.16,30.08,10,3,14,0.00
2013-9-24,63.2,51.6,38.8,57.3,48.9,38.8,100,91,74,30.10,29.99,8,2,11,0.00
2013-9-25,64.2,53.4,40.2,59.6,50.6,40.2,100,91,72,30.02,29.98,6,2,10,0.00
2013-9-26,67.8,55.0,41.9,60.7,51.3,41.9,100,89,62,30.10,30.00,6,2,11,0.00
2013-9-27,69.4,58.6,42.6,62.9,55.3,42.6,100,90,70,30.14,30.06,11,4,17,0.00
2013-9-28,67.9,63.3,57.0,63.0,59.6,55.2,100,88,75,30.06,29.77,17,10,26,0.19
2013-9-29,66.4,57.0,50.5,56.4,51.1,46.0,100,82,51,30.01,29.86,9,3,11,0.00
2013-9-30,66.0,58.3,48.0,56.3,49.3,40.9,89,73,53,29.97,29.78,17,7,20,0.00
2013-10-1,77.0,66.1,55.9,62.1,55.3,42.5,89,70,42,29.87,29.70,11,6,16,0.00
2013-10-2,70.3,59.4,46.2,55.9,46.1,34.8,100,66,29,30.06,29.88,7,2,8,0.00
2013-10-3,68.1,59.0,48.5,59.1,55.1,48.5,100,88,69,29.97,29.87,11,4,12,0.02
2013-10-4,59.5,58.1,56.5,59.5,58.0,56.5,100,100,97,30.02,29.86,13,6,19,0.26
2013-10-5,62.6,59.7,57.8,62.6,59.7,57.8,100,100,100,30.01,29.70,10,6,14,0.97
2013-10-6,62.7,58.1,51.0,62.7,52.4,43.1,100,83,52,29.70,29.60,8,4,12,0.13
2013-10-7,63.9,53.4,41.6,49.8,45.1,40.5,96,75,46,30.05,29.60,11,5,17,0.03
2013-10-8,65.2,57.0,38.3,59.2,53.1,38.3,100,88,63,30.13,30.06,15,7,22,0.00
2013-10-9,68.6,59.9,51.6,57.9,53.7,51.1,100,81,63,30.17,30.07,16,6,16,0.00
2013-10-10,66.1,54.6,40.9,60.6,52.8,40.9,100,94,70,30.17,30.05,8,2,10,0.00
2013-10-11,64.8,55.6,42.3,60.2,51.7,42.3,100,88,65,30.08,29.95,11,4,12,0.01
2013-10-12,65.3,59.8,53.2,61.0,55.5,40.4,100,86,61,30.04,29.85,17,8,18,0.06
2013-10-13,57.5,50.4,37.3,47.1,42.2,37.3,100,75,51,30.40,30.05,11,3,13,0.00
2013-10-14,57.2,46.7,33.8,47.7,41.8,33.8,100,84,65,30.44,30.19,9,3,12,0.00
2013-10-15,56.0,54.0,51.1,56.0,52.0,45.5,100,93,75,30.18,29.67,12,4,17,0.41
2013-10-16,51.0,48.9,46.2,50.5,45.3,38.9,100,87,75,29.89,29.67,9,5,14,0.04
2013-10-17,52.3,44.6,38.2,41.6,39.0,35.8,100,82,58,29.88,29.73,5,1,10,0.00
2013-10-18,51.9,46.2,41.9,47.7,43.2,39.8,98,90,75,29.85,29.73,9,2,11,0.12
2013-10-19,51.9,43.8,35.3,40.9,36.7,32.1,100,78,47,29.83,29.66,10,3,10,0.00
2013-10-20,47.6,42.1,34.3,45.4,38.8,34.0,100,89,61,29.81,29.64,10,2,12,0.09
2013-10-21,45.5,39.8,35.0,45.5,31.4,21.4,100,73,54,29.83,29.63,12,8,19,0.03
2013-10-22,45.4,39.5,34.9,33.4,30.0,26.2,81,69,54,29.92,29.76,12,7,17,0.00
2013-10-23,44.3,38.1,31.9,31.4,27.7,23.7,83,67,44,29.93,29.87,11,5,17,0.00
2013-10-24,45.5,38.7,34.7,33.0,29.9,27.3,79,71,52,30.21,29.93,13,7,14,0.00
2013-10-25,48.8,40.2,30.9,33.2,29.5,24.6,91,67,47,30.28,29.68,16,7,24,0.00
2013-10-26,49.6,45.3,39.6,39.7,31.2,23.2,77,58,48,30.00,29.61,15,9,25,0.00
2013-10-27,49.6,41.8,34.9,37.7,31.1,26.4,82,66,50,30.03,29.83,12,4,20,0.00
2013-10-28,44.1,36.4,30.3,35.1,26.2,20.7,79,66,49,30.46,30.05,14,8,20,0.00
2013-10-29,43.8,37.9,29.5,39.6,31.4,24.5,91,77,70,30.46,30.18,7,4,8,0.00
2013-10-30,52.2,47.8,42.2,52.2,47.0,39.2,100,97,86,30.18,29.73,14,4,14,0.17
2013-10-31,55.6,52.7,50.4,55.6,52.7,50.4,100,100,100,29.73,29.06,9,2,17,0.56
2013-11-1,50.5,46.6,42.3,50.5,43.5,39.3,100,89,77,29.69,29.08,12,6,13,0.47
2013-11-2,42.9,40.0,33.8,39.8,35.6,30.9,96,85,67,30.15,29.69,11,4,13,0.00
2013-11-3,46.1,38.5,27.2,39.9,34.1,27.2,100,85,69,30.31,30.15,14,5,19,0.00
2013-11-4,49.4,47.2,44.6,44.8,42.1,39.1,88,83,75,30.26,30.05,21,14,26,0.00
2013-11-5,52.9,48.1,41.2,49.2,43.6,36.2,100,85,57,30.25,29.86,16,5,17,0.62
2013-11-6,48.9,41.2,34.7,48.9,37.7,22.8,100,88,61,30.06,29.69,18,8,25,0.20
2013-11-7,39.3,35.8,31.2,28.1,24.8,21.9,83,65,53,30.14,30.06,11,7,18,0.00
2013-11-8,45.2,38.1,30.3,40.0,29.4,23.8,85,71,54,30.24,29.86,14,6,22,0.00
2013-11-9,46.5,43.2,40.3,42.4,37.1,30.1,97,79,62,29.91,29.65,19,10,25,0.41
2013-11-10,44.6,40.8,38.8,34.5,30.7,27.9,83,68,53,30.21,29.91,15,7,19,0.00
2013-11-11,39.2,30.7,26.4,36.8,21.1,11.1,98,69,44,30.50,30.00,15,10,22,0.09
2013-11-12,29.7,26.2,23.9,15.9,13.6,11.2,68,59,46,30.64,30.48,13,7,20,0.00
2013-11-13,42.2,32.7,22.9,22.5,18.1,14.2,74,56,42,30.48,29.93,14,9,19,0.00
2013-11-14,45.8,39.3,33.7,33.1,25.9,18.2,76,59,47,29.92,29.81,10,6,17,0.00
2013-11-15,50.8,40.1,27.9,39.3,34.2,26.1,98,80,63,29.88,29.81,9,3,12,0.00
2013-11-16,51.6,44.8,37.8,51.4,43.9,35.4,100,96,89,29.87,29.43,0,0,0,0.72
2013-11-17,53.8,48.1,41.5,53.8,47.1,33.8,100,96,74,29.45,29.10,23,4,27,0.57
2013-11-18,41.5,34.6,30.1,33.5,23.5,18.9,75,64,56,30.20,29.43,17,12,30,0.00
2013-11-19,38.9,31.5,22.2,33.0,23.2,18.2,87,72,57,30.37,30.21,14,4,14,0.00
2013-11-20,41.6,40.0,38.8,36.8,34.1,32.3,92,79,71,30.25,30.12,22,12,30,0.00
2013-11-21,40.3,38.8,34.0,38.3,37.1,33.2,100,94,87,30.25,30.12,11,3,14,0.10
2013-11-22,33.4,30.2,27.5,32.6,22.1,12.9,97,73,49,30.43,30.25,12,8,18,0.01
2013-11-23,27.2,18.1,14.3,16.9,4.5,-2.0,79,55,43,30.67,30.34,17,12,27,0.00
2013-11-24,26.0,18.9,14.3,8.7,4.3,-1.3,67,53,38,30.64,30.10,15,8,22,0.00
2013-11-25,32.5,29.5,25.7,26.0,19.9,8.1,79,68,44,30.10,29.89,15,9,24,0.00
2013-11-26,33.2,26.3,16.5,28.6,16.9,3.7,94,68,43,30.17,29.92,13,7,18,0.02
2013-11-27,26.1,22.2,16.5,18.3,13.8,8.7,85,71,52,30.22,30.13,12,6,18,0.00
2013-11-28,26.1,23.7,21.3,21.2,19.0,15.6,93,82,66,30.46,30.19,10,3,14,0.02
2013-11-29,34.1,26.8,16.2,26.3,19.8,14.1,96,75,56,30.60,30.34,17,5,22,0.00
2013-11-30,38.9,33.4,29.7,28.2,25.9,23.1,88,74,63,30.33,30.01,14,5,18,0.00
2013-12-1,36.2,33.1,29.3,32.1,28.7,25.7,92,84,71,30.13,30.00,2,0,3,0.00
2013-12-2,37.9,32.6,28.2,30.7,26.2,21.8,94,78,55,29.99,29.85,8,1,11,0.00
2013-12-3,36.9,32.7,30.9,32.8,30.6,26.3,100,93,68,29.88,29.82,12,8,15,0.26
2013-12-4,46.8,38.6,32.9,46.8,38.6,32.9,100,100,99,29.84,29.36,10,4,13,0.18
2013-12-5,39.5,23.0,11.1,38.7,14.6,3.8,97,70,56,30.20,29.44,16,2,21,0.00
2013-12-6,15.4,10.9,7.2,4.4,3.1,0.9,81,71,59,30.49,30.21,13,3,18,0.00
2013-12-7,12.4,7.9,4.3,2.2,-0.8,-4.7,82,68,53,30.65,30.49,8,0,12,0.00
2013-12-8,24.2,12.2,4.1,23.2,7.3,-4.9,96,81,63,30.61,29.98,6,0,7,0.10
2013-12-9,24.4,13.5,0.0,23.4,8.3,-7.4,96,80,62,30.12,29.85,0,0,0,0.03
2013-12-10,12.9,5.9,-1.2,2.2,-2.3,-8.0,80,69,60,30.20,29.87,8,1,12,0.00
2013-12-11,6.5,5.6,4.3,-1.4,-2.1,-3.3,72,70,68,30.29,30.20,0,0,0,0.00
2013-12-13,18.0,14.6,13.5,15.0,5.8,3.0,88,68,58,30.35,30.27,0,0,0,0.00
2013-12-14,23.0,20.0,16.5,21.2,17.1,11.8,95,89,75,30.33,29.89,0,0,0,0.05
2013-12-15,16.2,11.7,6.5,14.3,4.3,-1.9,92,72,53,30.09,29.83,0,0,0,0.00
2013-12-16,18.1,10.4,0.9,10.8,5.1,-3.1,86,79,65,30.16,29.93,0,0,0,0.00
2013-12-17,25.6,19.0,12.3,21.7,14.7,8.1,90,83,70,29.98,29.84,0,0,0,0.08
2013-12-18,30.4,20.7,9.0,24.1,12.7,2.7,88,71,57,30.07,29.73,0,0,0,0.00
2013-12-19,27.0,21.8,15.6,21.7,16.5,9.4,90,80,73,30.08,29.74,0,0,0,0.00
2013-12-20,26.1,22.5,19.5,24.9,20.7,17.3,98,93,88,30.00,29.83,0,0,0,0.11
2013-12-21,29.3,26.0,23.9,25.9,24.0,22.4,98,92,85,29.97,29.81,0,0,0,0.00
2013-12-22,29.5,23.5,20.3,25.8,21.1,17.0,95,91,85,30.10,29.78,0,0,0,0.05
2013-12-23,20.6,18.2,12.9,18.1,14.0,6.3,93,84,68,30.39,30.10,0,0,0,0.00
2013-12-24,19.1,7.7,-2.6,7.1,1.6,-7.0,87,76,57,30.52,30.31,1,0,1,0.00
2013-12-25,17.3,15.8,12.8,14.5,11.8,7.2,91,84,69,30.31,30.03,0,0,0,0.01
2013-12-26,17.3,14.0,9.2,15.1,8.5,4.6,91,79,65,30.24,30.02,0,0,0,0.00
2013-12-27,35.2,23.6,9.2,28.2,19.1,6.6,91,83,74,30.25,29.89,0,0,0,0.00
2013-12-28,38.3,30.2,23.5,31.7,27.4,22.6,99,89,77,29.98,29.72,0,0,0,0.00
2013-12-29,31.5,15.7,0.7,31.0,7.6,-7.5,99,71,56,30.21,29.72,0,0,0,0.00
2013-12-30,3.0,-1.9,-8.2,-7.6,-11.6,-14.8,74,63,53,30.33,30.16,3,0,4,0.00
2013-12-31,5.6,0.3,-5.4,-6.2,-9.8,-14.0,75,62,53,30.44,30.15,0,0,0,0.00
2014-1-1,9.2,3.7,-5.6,0.1,-5.2,-14.2,70,66,62,30.50,30.38,0,0,0,0.00
2014-1-2,11.7,6.4,-1.0,0.3,-2.8,-8.2,76,66,52,30.43,30.33,0,0,0,0.00